TimeMDT,TemperatureF,Dew PointF,Humidity,Sea Level PressureIn,VisibilityMPH,Wind Direction,Wind SpeedMPH,Gust SpeedMPH,PrecipitationIn,Events,Conditions,WindDirDegrees,DateUTC
12:51 AM,28.0,21.0,75,30.01,-9999.0,South,4.6,-,N/A,,Unknown,170,2014-04-11 06:51:00
1:51 AM,26.1,19.9,78,30.01,-9999.0,SE,4.6,-,N/A,,Unknown,140,2014-04-11 07:51:00
2:51 AM,25.0,19.0,78,30.01,-9999.0,Calm,Calm,-,N/A,,Unknown,0,2014-04-11 08:51:00
3:51 AM,23.0,19.0,85,30.00,-9999.0,Calm,Calm,-,N/A,,Unknown,0,2014-04-11 09:51:00
4:51 AM,21.9,18.0,85,30.01,-9999.0,Calm,Calm,-,N/A,,Unknown,0,2014-04-11 10:51:00
5:51 AM,21.0,17.1,85,30.00,-9999.0,Calm,Calm,-,N/A,,Unknown,0,2014-04-11 11:51:00
6:51 AM,19.9,16.0,85,30.02,-9999.0,Variable,3.5,-,N/A,,Unknown,0,2014-04-11 12:51:00
7:51 AM,21.9,18.0,85,30.04,-9999.0,Calm,Calm,-,N/A,,Unknown,0,2014-04-11 13:51:00
8:51 AM,25.0,19.0,78,30.03,-9999.0,Variable,3.5,-,N/A,,Unknown,0,2014-04-11 14:51:00
9:51 AM,27.0,19.9,75,30.01,-9999.0,East,3.5,-,N/A,,Unknown,80,2014-04-11 15:51:00
10:51 AM,36.0,21.9,57,29.99,-9999.0,Variable,4.6,-,N/A,,Unknown,0,2014-04-11 16:51:00
11:51 AM,39.9,21.9,49,29.97,-9999.0,Calm,Calm,-,N/A,,Unknown,0,2014-04-11 17:51:00
12:51 PM,50.0,21.0,32,29.91,-9999.0,NNW,4.6,-,N/A,,Unknown,340,2014-04-11 18:51:00
1:51 PM,51.1,21.0,31,29.90,-9999.0,Calm,Calm,-,N/A,,Unknown,0,2014-04-11 19:51:00
2:51 PM,53.1,21.9,30,29.89,-9999.0,Variable,3.5,-,N/A,,Unknown,0,2014-04-11 20:51:00
3:51 PM,52.0,21.9,31,29.88,-9999.0,Calm,Calm,-,N/A,,Unknown,0,2014-04-11 21:51:00
4:51 PM,52.0,24.1,34,29.87,-9999.0,North,3.5,-,N/A,,Unknown,10,2014-04-11 22:51:00
5:51 PM,54.0,23.0,30,29.85,-9999.0,NNE,5.8,-,N/A,,Unknown,20,2014-04-11 23:51:00
6:51 PM,52.0,24.1,34,29.86,-9999.0,Variable,5.8,-,N/A,,Unknown,0,2014-04-12 00:51:00
7:51 PM,45.0,26.1,48,29.86,-9999.0,Calm,Calm,-,N/A,,Unknown,0,2014-04-12 01:51:00
8:51 PM,39.9,26.1,58,29.88,-9999.0,Calm,Calm,-,N/A,,Unknown,0,2014-04-12 02:51:00
9:51 PM,37.0,24.1,59,29.90,-9999.0,South,3.5,-,N/A,,Unknown,190,2014-04-12 03:51:00
10:51 PM,33.1,23.0,66,29.86,-9999.0,SE,3.5,-,N/A,,Unknown,130,2014-04-12 04:51:00
11:51 PM,30.0,23.0,75,29.85,-9999.0,SE,5.8,-,N/A,,Unknown,130,2014-04-12 05:51:00